EW7004 Weather Reports


Display with metric or nautical units.
time (UTC)temp
F
wind
direction
speed
MPH
gust
MPH
rain 1hr
in
rain 24hr
in
rain mn
in
humidity
%
barometer
mb
20260510061403 68 158 0.0 2.0 0.00 0.00 0.00 51 1030.1
20260510060903 68 158 1.0 3.0 0.00 0.00 0.00 50 1030.1
20260510060403 68 162 0.0 0.0 0.00 0.00 0.00 49 1030.1
20260510055903 68 163 0.0 0.0 0.00 0.00 0.00 48 1029.9
20260510055404 68 163 0.0 2.0 0.00 0.00 0.00 48 1030.0
20260510054903 68 163 1.0 3.0 0.00 0.00 0.00 47 1030.0
20260510054403 69 150 2.0 3.0 0.00 0.00 0.00 46 1030.1
20260510053903 69 150 2.0 3.0 0.00 0.00 0.00 44 1030.0
20260510053403 69 133 1.0 2.0 0.00 0.00 0.00 44 1030.1
20260510052403 69 178 1.0 2.0 0.00 0.00 0.00 43 1030.1
20260510051903 69 178 0.0 2.0 0.00 0.00 0.00 42 1030.0
20260510051403 70 178 1.0 2.0 0.00 0.00 0.00 41 1030.0
20260510050903 70 178 0.0 2.0 0.00 0.00 0.00 40 1030.0
20260510050403 70 182 0.0 3.0 0.00 0.00 0.00 39 1030.0
20260510045903 70 182 1.0 3.0 0.00 0.00 0.00 38 1030.1
20260510045404 71 216 1.0 3.0 0.00 0.00 0.00 36 1030.0
20260510044403 71 216 0.0 0.0 0.00 0.00 0.00 35 1029.9
20260510043903 71 216 0.0 0.0 0.00 0.00 0.00 34 1029.8
20260510043404 71 216 0.0 2.0 0.00 0.00 0.00 33 1029.8
20260510042903 71 216 0.0 0.0 0.00 0.00 0.00 32 1029.9
20260510042403 72 216 1.0 2.0 0.00 0.00 0.00 31 1029.8
20260510041903 72 216 0.0 2.0 0.00 0.00 0.00 31 1029.7
20260510041403 72 192 2.0 3.0 0.00 0.00 0.00 31 1029.6
20260510040903 72 205 1.0 5.0 0.00 0.00 0.00 32 1029.6
20260510040403 73 217 4.0 6.0 0.00 0.00 0.00 31 1029.6
20260510035903 73 221 5.0 7.0 0.00 0.00 0.00 31 1029.5
20260510034903 73 217 3.0 5.0 0.00 0.00 0.00 33 1029.5
20260510034404 73 217 4.0 6.0 0.00 0.00 0.00 32 1029.4
20260510033903 74 216 4.0 6.0 0.00 0.00 0.00 32 1029.3
20260510033404 74 216 3.0 6.0 0.00 0.00 0.00 32 1029.2
20260510032403 75 223 5.0 5.0 0.00 0.00 0.00 32 1029.2
20260510031404 75 225 2.0 5.0 0.00 0.00 0.00 32 1029.0
20260510030903 75 215 2.0 5.0 0.00 0.00 0.00 31 1029.0
20260510030404 76 227 3.0 5.0 0.00 0.00 0.00 31 1028.9
20260510025904 76 218 3.0 3.0 0.00 0.00 0.00 31 1028.9
20260510025403 76 206 2.0 5.0 0.00 0.00 0.00 31 1028.8
20260510024903 76 201 1.0 6.0 0.00 0.00 0.00 31 1028.8
20260510024404 77 207 5.0 7.0 0.00 0.00 0.00 30 1028.7
20260510023903 77 225 3.0 5.0 0.00 0.00 0.00 30 1028.6
20260510023404 78 198 1.0 3.0 0.00 0.00 0.00 30 1028.6
20260510022903 78 211 2.0 3.0 0.00 0.00 0.00 31 1028.6
20260510022403 78 173 2.0 3.0 0.00 0.00 0.00 30 1028.5
20260510021403 79 261 2.0 6.0 0.00 0.00 0.00 30 1028.5
20260510020903 79 246 2.0 10.0 0.00 0.00 0.00 30 1028.4
20260510020404 79 214 2.0 8.0 0.00 0.00 0.00 31 1028.3
20260510015903 79 192 5.0 12.0 0.00 0.00 0.00 30 1028.1
20260510015404 80 203 6.0 12.0 0.00 0.00 0.00 29 1028.1
20260510014403 81 223 5.0 12.0 0.00 0.00 0.00 29 1028.1
20260510013903 81 208 8.0 14.0 0.00 0.00 0.00 28 1027.9
20260510013403 81 213 10.0 17.0 0.00 0.00 0.00 27 1027.9
20260510012903 81 209 11.0 16.0 0.00 0.00 0.00 27 1027.8
20260510012404 82 205 8.0 15.0 0.00 0.00 0.00 27 1027.7
20260510011903 82 209 12.0 18.0 0.00 0.00 0.00 27 1027.7
20260510011404 83 209 10.0 16.0 0.00 0.00 0.00 27 1027.8
20260510010903 83 219 11.0 16.0 0.00 0.00 0.00 27 1027.7
20260510010403 83 219 7.0 16.0 0.00 0.00 0.00 28 1027.7
20260510005903 84 217 12.0 17.0 0.00 0.00 0.00 26 1027.6
20260510005403 84 210 8.0 15.0 0.00 0.00 0.00 27 1027.5
20260510004903 85 198 10.0 15.0 0.00 0.00 0.00 27 1027.4
20260510003903 85 216 12.0 17.0 0.00 0.00 0.00 27 1027.4
20260510003403 85 215 10.0 18.0 0.00 0.00 0.00 27 1027.3
20260510002904 86 214 10.0 17.0 0.00 0.00 0.00 27 1027.3
20260510002403 86 199 8.0 17.0 0.00 0.00 0.00 28 1027.3
20260510001904 87 211 11.0 16.0 0.00 0.00 0.00 27 1027.2
20260510000404 87 220 7.0 16.0 0.00 0.00 0.00 27 1027.2
20260509235403 87 194 7.0 18.0 0.00 0.00 0.00 27 1027.1
20260509234903 88 219 12.0 16.0 0.00 0.00 0.00 26 1027.1
20260509234403 88 206 12.0 16.0 0.00 0.00 0.00 26 1027.1
20260509232404 89 198 6.0 12.0 0.00 0.00 0.00 26 1027.1
20260509231403 90 219 9.0 16.0 0.00 0.00 0.00 25 1027.1
20260509230904 89 191 5.0 12.0 0.00 0.00 0.00 26 1027.2
20260509230403 89 207 8.0 17.0 0.00 0.00 0.00 25 1027.2
20260509225903 89 210 9.0 20.0 0.00 0.00 0.00 24 1027.2
20260509225404 90 196 8.0 17.0 0.00 0.00 0.00 25 1027.2
20260509224903 90 224 7.0 16.0 0.00 0.00 0.00 24 1027.2
20260509224403 90 227 7.0 14.0 0.00 0.00 0.00 25 1027.2
20260509223903 90 198 7.0 14.0 0.00 0.00 0.00 24 1027.2
20260509223403 91 188 9.0 17.0 0.00 0.00 0.00 24 1027.3
20260509222904 91 205 6.0 12.0 0.00 0.00 0.00 25 1027.3
20260509222404 91 203 7.0 14.0 0.00 0.00 0.00 26 1027.3
20260509221903 90 200 6.0 15.0 0.00 0.00 0.00 25 1027.3
20260509221404 91 171 7.0 14.0 0.00 0.00 0.00 26 1027.4
20260509220904 91 210 6.0 12.0 0.00 0.00 0.00 25 1027.5
20260509215903 91 235 7.0 14.0 0.00 0.00 0.00 24 1027.6
20260509215403 91 214 7.0 16.0 0.00 0.00 0.00 24 1027.6
20260509214904 91 228 7.0 13.0 0.00 0.00 0.00 24 1027.6
20260509214404 91 163 5.0 13.0 0.00 0.00 0.00 25 1027.7
20260509213904 90 205 3.0 12.0 0.00 0.00 0.00 24 1027.7
20260509212904 91 202 7.0 13.0 0.00 0.00 0.00 23 1027.9
20260509212404 91 146 5.0 15.0 0.00 0.00 0.00 24 1028.0
20260509211903 91 161 5.0 8.0 0.00 0.00 0.00 24 1028.1
20260509211403 91 220 8.0 14.0 0.00 0.00 0.00 23 1028.2
20260509210904 91 194 6.0 12.0 0.00 0.00 0.00 24 1028.3
20260509210404 91 228 5.0 12.0 0.00 0.00 0.00 23 1028.4
20260509205903 90 179 2.0 7.0 0.00 0.00 0.00 26 1028.4
20260509205404 90 204 4.0 9.0 0.00 0.00 0.00 25 1028.5
20260509204903 89 175 5.0 10.0 0.00 0.00 0.00 25 1028.6
20260509204404 89 189 4.0 10.0 0.00 0.00 0.00 26 1028.6
20260509203903 89 193 5.0 12.0 0.00 0.00 0.00 25 1028.6
20260509202903 88 233 6.0 13.0 0.00 0.00 0.00 24 1028.8
20260509201404 88 197 6.0 12.0 0.00 0.00 0.00 24 1028.8
20260509200904 88 160 6.0 12.0 0.00 0.00 0.00 24 1029.0
20260509200404 87 241 6.0 12.0 0.00 0.00 0.00 25 1029.0
20260509195904 87 209 5.0 10.0 0.00 0.00 0.00 26 1028.9
20260509195404 87 204 7.0 12.0 0.00 0.00 0.00 25 1029.0
20260509194404 87 217 7.0 10.0 0.00 0.00 0.00 27 1029.1
20260509193906 87 224 5.0 13.0 0.00 0.00 0.00 26 1029.1
20260509193404 87 195 3.0 8.0 0.00 0.00 0.00 27 1029.2
20260509192904 86 206 6.0 10.0 0.00 0.00 0.00 27 1029.3
20260509192404 86 140 3.0 8.0 0.00 0.00 0.00 30 1029.3
20260509191904 85 231 5.0 8.0 0.00 0.00 0.00 28 1029.4
20260509190403 85 275 3.0 8.0 0.00 0.00 0.00 29 1029.5
20260509185904 86 267 5.0 8.0 0.00 0.00 0.00 29 1029.6
20260509185403 85 156 2.0 5.0 0.00 0.00 0.00 30 1029.7
20260509184904 85 139 2.0 5.0 0.00 0.00 0.00 29 1029.7
20260509184403 85 162 3.0 6.0 0.00 0.00 0.00 31 1029.8
20260509183904 84 103 2.0 6.0 0.00 0.00 0.00 31 1029.8
20260509183404 83 305 1.0 3.0 0.00 0.00 0.00 32 1029.8
20260509182904 82 134 2.0 5.0 0.00 0.00 0.00 31 1029.8
20260509182404 82 178 3.0 5.0 0.00 0.00 0.00 32 1029.8
20260509181904 81 325 2.0 3.0 0.00 0.00 0.00 32 1029.9
20260509181403 80 237 2.0 5.0 0.00 0.00 0.00 32 1029.9
20260509180903 80 302 2.0 7.0 0.00 0.00 0.00 34 1029.9
20260509175403 79 200 2.0 5.0 0.00 0.00 0.00 39 1030.1
20260509174903 79 269 1.0 3.0 0.00 0.00 0.00 41 1030.1
20260509174403 78 222 2.0 3.0 0.00 0.00 0.00 42 1030.1
20260509173903 77 269 3.0 7.0 0.00 0.00 0.00 43 1030.2
20260509173403 77 279 3.0 6.0 0.00 0.00 0.00 42 1030.3
20260509172903 76 239 2.0 3.0 0.00 0.00 0.00 42 1030.3
20260509172403 76 239 2.0 7.0 0.00 0.00 0.00 43 1030.2
20260509171904 75 245 2.0 3.0 0.00 0.00 0.00 46 1030.2
20260509171403 74 247 2.0 3.0 0.00 0.00 0.00 49 1030.3
20260509170903 74 272 3.0 7.0 0.00 0.00 0.00 49 1030.3
20260509165903 73 272 0.0 3.0 0.00 0.00 0.00 55 1030.3
20260509165403 72 295 0.0 3.0 0.00 0.00 0.00 55 1030.3
20260509163903 71 257 2.0 3.0 0.00 0.00 0.00 56 1030.5
20260509163404 70 271 3.0 6.0 0.00 0.00 0.00 56 1030.5
20260509162403 70 263 3.0 6.0 0.00 0.00 0.00 58 1030.6
20260509161404 70 285 3.0 6.0 0.00 0.00 0.00 59 1030.6
20260509160904 70 216 3.0 6.0 0.00 0.00 0.00 60 1030.6
20260509160403 69 132 0.0 3.0 0.00 0.00 0.00 61 1030.5
20260509155904 68 338 0.0 0.0 0.00 0.00 0.00 61 1030.6
20260509155403 68 338 0.0 0.0 0.00 0.00 0.00 61 1030.7
20260509154903 68 338 0.0 1.0 0.00 0.00 0.00 62 1030.7
20260509154403 67 250 0.0 0.0 0.00 0.00 0.00 63 1030.7
20260509153904 66 250 0.0 0.0 0.00 0.00 0.00 65 1030.8
20260509153403 65 250 0.0 0.0 0.00 0.00 0.00 66 1030.8
20260509152903 65 250 0.0 0.0 0.00 0.00 0.00 66 1030.8
20260509152403 64 265 0.0 0.0 0.00 0.00 0.00 67 1030.9
20260509151403 64 265 0.0 0.0 0.00 0.00 0.00 68 1030.9
20260509150903 64 288 0.0 0.0 0.00 0.00 0.00 70 1031.0
20260509150403 63 288 0.0 0.0 0.00 0.00 0.00 71 1031.0
20260509145403 62 140 0.0 0.0 0.00 0.00 0.00 74 1030.9
20260509144904 62 140 0.0 0.0 0.00 0.00 0.00 74 1030.9
20260509143903 61 140 0.0 0.0 0.00 0.00 0.00 76 1030.9
20260509143403 61 140 0.0 0.0 0.00 0.00 0.00 77 1030.9
20260509142903 60 126 0.0 0.0 0.00 0.00 0.00 79 1031.0
20260509142403 59 126 0.0 0.0 0.00 0.00 0.00 79 1031.0
20260509141903 59 126 0.0 0.0 0.00 0.00 0.00 80 1030.9
20260509141403 59 126 0.0 0.0 0.00 0.00 0.00 80 1030.9
20260509140904 58 126 0.0 0.0 0.00 0.00 0.00 81 1030.8
20260509140403 58 126 0.0 0.0 0.00 0.00 0.00 82 1030.7
20260509135403 57 126 0.0 0.0 0.00 0.00 0.00 83 1030.8
20260509134903 57 126 0.0 0.0 0.00 0.00 0.00 83 1030.8
20260509134403 56 126 0.0 0.0 0.00 0.00 0.00 83 1030.7
20260509133903 56 126 0.0 0.0 0.00 0.00 0.00 83 1030.6
20260509133403 56 126 0.0 0.0 0.00 0.00 0.00 82 1030.6
20260509132903 56 126 0.0 0.0 0.00 0.00 0.00 82 1030.5
20260509132403 56 126 0.0 0.0 0.00 0.00 0.00 82 1030.5
20260509131903 56 126 0.0 0.0 0.00 0.00 0.00 82 1030.6
20260509130903 56 126 0.0 0.0 0.00 0.00 0.00 82 1030.6
20260509130403 56 126 0.0 0.0 0.00 0.00 0.00 82 1030.5
20260509125903 56 126 0.0 0.0 0.00 0.00 0.00 82 1030.4
20260509125404 56 126 0.0 0.0 0.00 0.00 0.00 82 1030.4
20260509124904 57 126 0.0 0.0 0.00 0.00 0.00 82 1030.4
20260509124404 57 126 0.0 0.0 0.00 0.00 0.00 83 1030.4
20260509123903 57 134 0.0 0.0 0.00 0.00 0.00 82 1030.3
20260509122903 57 148 0.0 0.0 0.00 0.00 0.00 82 1030.3
20260509122404 57 148 0.0 0.0 0.00 0.00 0.00 82 1030.3
20260509121903 57 148 0.0 0.0 0.00 0.00 0.00 82 1030.2
20260509120903 58 148 0.0 0.0 0.00 0.00 0.00 82 1030.2
20260509120404 58 148 0.0 0.0 0.00 0.00 0.00 82 1030.2
20260509115903 58 148 0.0 0.0 0.00 0.00 0.00 82 1030.3
20260509115403 58 148 0.0 0.0 0.00 0.00 0.00 82 1030.2
20260509114904 58 148 0.0 0.0 0.00 0.00 0.00 81 1030.2
20260509114404 58 148 0.0 0.0 0.00 0.00 0.00 82 1030.3
20260509113903 58 148 0.0 0.0 0.00 0.00 0.00 81 1030.2
20260509113403 58 148 0.0 0.0 0.00 0.00 0.00 81 1030.2
20260509112904 58 148 0.0 0.0 0.00 0.00 0.00 81 1030.2
20260509111903 59 148 0.0 0.0 0.00 0.00 0.00 79 1030.3
20260509110403 59 148 0.0 0.0 0.00 0.00 0.00 75 1030.2
20260509105903 59 148 0.0 0.0 0.00 0.00 0.00 75 1030.3
20260509105404 59 148 0.0 0.0 0.00 0.00 0.00 75 1030.3
20260509104903 59 148 0.0 0.0 0.00 0.00 0.00 75 1030.3
20260509103904 59 148 0.0 0.0 0.00 0.00 0.00 75 1030.4
20260509102903 59 148 0.0 0.0 0.00 0.00 0.00 75 1030.4
20260509102404 60 148 0.0 0.0 0.00 0.00 0.00 75 1030.4
20260509101904 60 148 0.0 0.0 0.00 0.00 0.00 75 1030.5
20260509101404 60 148 0.0 0.0 0.00 0.00 0.00 75 1030.5
20260509100403 60 148 0.0 0.0 0.00 0.00 0.00 75 1030.6
20260509095904 60 148 0.0 0.0 0.00 0.00 0.00 75 1030.6
20260509094903 61 148 0.0 0.0 0.00 0.00 0.00 75 1030.6
20260509094404 61 148 0.0 0.0 0.00 0.00 0.00 75 1030.6
20260509093903 61 148 0.0 0.0 0.00 0.00 0.00 75 1030.7
20260509093404 61 148 0.0 0.0 0.00 0.00 0.00 75 1030.7
20260509092403 62 148 0.0 0.0 0.00 0.00 0.00 76 1030.8
20260509091904 62 148 0.0 0.0 0.00 0.00 0.00 77 1030.8
20260509091404 62 148 0.0 0.0 0.00 0.00 0.00 77 1030.9
20260509090403 62 148 0.0 0.0 0.00 0.00 0.00 76 1030.9
20260509085904 62 148 0.0 0.0 0.00 0.00 0.00 75 1030.9
20260509084404 63 148 0.0 0.0 0.00 0.00 0.00 74 1031.1
20260509083903 63 148 0.0 0.0 0.00 0.00 0.00 74 1031.2
20260509083403 63 148 0.0 0.0 0.00 0.00 0.00 74 1031.2
20260509082904 63 148 0.0 0.0 0.00 0.00 0.00 74 1031.2
20260509082404 63 148 0.0 0.0 0.00 0.00 0.00 74 1031.2
20260509081904 63 148 0.0 0.0 0.00 0.00 0.00 74 1031.2
20260509081403 63 148 0.0 0.0 0.00 0.00 0.00 74 1031.3
20260509080904 63 148 0.0 0.0 0.00 0.00 0.00 74 1031.4
20260509080404 63 148 0.0 0.0 0.00 0.00 0.00 74 1031.4
20260509075903 63 148 0.0 0.0 0.00 0.00 0.00 74 1031.4
20260509075403 64 148 0.0 0.0 0.00 0.00 0.00 74 1031.5
20260509074903 64 148 0.0 1.0 0.00 0.00 0.00 74 1031.6
20260509074404 64 148 0.0 0.0 0.00 0.00 0.00 73 1031.6
20260509073904 64 148 0.0 0.0 0.00 0.00 0.00 73 1031.6
20260509073403 64 148 0.0 0.0 0.00 0.00 0.00 73 1031.6
20260509072903 64 148 0.0 2.0 0.00 0.00 0.00 73 1031.5
20260509072404 64 148 1.0 2.0 0.00 0.00 0.00 73 1031.6
20260509071904 64 148 0.0 0.0 0.00 0.00 0.00 72 1031.7
20260509071403 64 148 0.0 0.0 0.00 0.00 0.00 71 1031.6
20260509070904 65 148 1.0 3.0 0.00 0.00 0.00 71 1031.6
20260509070405 65 148 0.0 2.0 0.00 0.00 0.00 71 1031.7
20260509065903 65 148 0.0 2.0 0.00 0.00 0.00 70 1031.7
20260509065404 65 148 1.0 3.0 0.00 0.00 0.00 70 1031.7
20260509064904 65 169 1.0 3.0 0.00 0.00 0.00 69 1031.7
20260509063904 66 169 1.0 2.0 0.00 0.00 0.00 68 1031.7
20260509063404 66 146 0.0 0.0 0.00 0.00 0.00 68 1031.7
20260509062904 66 146 0.0 0.0 0.00 0.00 0.00 67 1031.7
20260509061904 66 146 0.0 0.0 0.00 0.00 0.00 67 1031.7